Flag for India Weather past 2 weeks in Amritsar, Punjab, India

Now
59 °F

Broken clouds.


Feels Like: 57 °F
Forecast: 53 / 64 °F
Wind: 13 mph from Southeast

Location: Lahore Airport

Current Time: Mar 1, 2015 at 6:28:15 PM

Latest Report: Mar 1, 2015 at 5:25 PM


Visibility: 2 mi

Pressure: 29.77 "Hg

Humidity: 82%

Dew point: 54 °F

Location of AmritsarLocation

Historic Weather in Amritsar — Graph

°F

Amritsar temperature yesterday

Maximum temperature yesterday: 73 °F (at 2:55 PM)
Minimum temperature yesterday: 50 °F (at 6:30 AM)
Average temperature yesterday: 62 °F

Past Weeks' High & Low Weather Summary

 TemperatureHumidityPressure
High82 °F (Feb 15, 2:55 PM)100% (Feb 16, 6:00 PM)30.09 "Hg (Feb 16, 6:00 PM)
Low48 °F (Feb 27, 6:55 AM)25% (Feb 26, 3:25 PM)29.68 "Hg (Feb 25, 5:25 AM)
Average64 °F68%29.93 "Hg
* Reported Feb 14 4:55 PM — Mar 1 5:25 PM, Amritsar, Weather by CustomWeather, © 2015

Note: Actual official high and low records may vary slightly from our data, if they occured in-between our weather recording intervals... More about our weather records

Advertising

Amritsar weather history for previous 24 hours

 ConditionsComfort  
Time TempWeatherWind HumidityBarometerVisibility
5:25 PM
Sun, Mar 1
59 °FBroken clouds.13 mph82%29.77 "Hg2 mi
4:55 PM59 °FBroken clouds.8 mph82%29.77 "Hg2 mi
4:25 PM59 °FBroken clouds.7 mph82%29.77 "Hg2 mi
3:55 PM59 °FBroken clouds.8 mph88%29.77 "Hg2 mi
3:25 PM57 °FRain. More clouds than sun.10 mph94%29.80 "Hg2 mi
3:00 PM57 °FLight rain. More clouds than sun.10 mph94%29.80 "Hg1 mi
2:30 PM57 °FRain. More clouds than sun.9 mph94%29.83 "Hg1 mi
1:55 PM57 °FRain. More clouds than sun.12 mph88%29.89 "Hg2 mi
1:30 PM57 °FRain. More clouds than sun.9 mph88%29.89 "Hg2 mi
1:00 PM57 °FRain. More clouds than sun.7 mph82%29.89 "Hg2 mi
12:30 PM57 °FRain. More clouds than sun.No wind82%29.92 "Hg2 mi
12:00 PM57 °FRain. More clouds than sun.No wind82%29.92 "Hg2 mi
11:30 AM59 °FRain. More clouds than sun.7 mph77%29.92 "Hg2 mi
11:00 AM59 °FMore clouds than sun.7 mph77%29.89 "Hg2 mi
10:25 AM59 °FRain. More clouds than sun.6 mph72%29.89 "Hg2 mi
9:55 AM61 °FDrizzle. More clouds than sun.7 mph68%29.89 "Hg2 mi
9:25 AM61 °FBroken clouds.7 mph68%29.89 "Hg2 mi
8:55 AM61 °FBroken clouds.12 mph68%29.86 "Hg2 mi
8:25 AM59 °FBroken clouds.5 mph72%29.86 "Hg2 mi
7:55 AM57 °FBroken clouds.5 mph77%29.83 "Hg2 mi
7:25 AM57 °FBroken clouds.No wind77%29.83 "Hg2 mi
6:55 AM59 °FPartly cloudy.No wind77%29.83 "Hg2 mi
6:25 AM59 °FPartly cloudy.3 mph77%29.86 "Hg2 mi
5:25 AM59 °FPartly cloudy.9 mph77%29.83 "Hg2 mi
4:55 AM59 °FPartly cloudy.10 mph72%29.83 "Hg2 mi
4:25 AM59 °FPartly cloudy.No wind72%29.86 "Hg2 mi
3:55 AM59 °FPartly cloudy.7 mph72%29.86 "Hg2 mi
3:25 AM59 °FPartly cloudy.12 mph72%29.86 "Hg2 mi
2:55 AM59 °FPartly cloudy.17 mph72%29.86 "Hg2 mi
2:25 AM59 °FRain. Partly cloudy.16 mph72%29.86 "Hg2 mi
1:55 AM61 °FPartly cloudy.13 mph68%29.89 "Hg2 mi
1:25 AM61 °FPartly cloudy.7 mph68%29.92 "Hg2 mi
12:55 AM61 °FPartly cloudy.7 mph63%29.95 "Hg2 mi
12:25 AM61 °FPartly cloudy.3 mph63%29.95 "Hg3 mi
11:55 PM
Sat, Feb 28
61 °FPartly cloudy.5 mph63%29.98 "Hg3 mi
11:25 PM61 °FPartly cloudy.5 mph63%29.95 "Hg3 mi
10:55 PM63 °FPartly cloudy.6 mph59%29.95 "Hg3 mi
10:25 PM63 °FPartly cloudy.3 mph59%29.98 "Hg3 mi
9:55 PM63 °FPassing clouds.6 mph59%29.98 "Hg3 mi
9:25 PM64 °FPassing clouds.8 mph56%29.98 "Hg3 mi
8:55 PM66 °FPassing clouds.7 mph46%29.98 "Hg3 mi
8:25 PM64 °FPassing clouds.6 mph52%29.98 "Hg3 mi
7:55 PM66 °FPassing clouds.6 mph46%29.98 "Hg3 mi
7:25 PM66 °FPassing clouds.5 mph46%29.98 "Hg3 mi
6:25 PM68 °FScattered clouds.8 mph40%29.98 "Hg3 mi
Weather by CustomWeather, © 2015

See weather overviewHow to use our weather pages